Regional & State Weather Roundups


877 
ASUS41 KLWX 300710
RWRLWX
REGIONAL WEATHER ROUNDUP
NATIONAL WEATHER SERVICE BALTIMORE MD/WASHINGTON DC
300 AM EDT THU JUL 30 2015
Note: "FAIR" indicates few or no clouds below 12,000 feet
with no significant weather and/or obstructions to visibility.
 TC=TEMPERATURE CELSIUS
 * =Non NWS site. Station does not report precipitation (e.g. rain,
    snow, etc.), thunder, or fog.
DCZ001-MDZ009-015-VAZ040>042-051-053>054-300800-
WASHINGTON METRO
  
CITY           SKY/WX    TMP DP  RH WIND       PRES   REMARKS
WASHINGTON NAT PTCLDY    82  75  79 S9        29.93F                  
DULLES         PTCLDY    76  71  85 S7        29.93F                  
ANDREWS AFB    PTCLDY    76  73  92 S8        29.93F                  
FT BELVOIR     CLEAR     77  74  91 SE5       29.93F                  
QUANTICO       CLOUDY    80  74  81 SW6       29.94F                  
COLLEGE PARK*  PTCLDY    79  73  83 S5        29.93F                  
LEESBURG*      PTCLDY    77  75  94 S12       29.94F                  
MANASSAS*      CLEAR     73  73 100 S3        29.93F                  
GAITHERSBURG*  MOCLDY    77  70  78 S3        29.98F                  
$$
MDZ006>007-011-014-300800-
BALTIMORE METRO
  
CITY           SKY/WX    TMP DP  RH WIND       PRES   REMARKS
BWI AIRPORT    PTCLDY    76  73  91 CALM      29.93F                  
MD SCIENCE CTR   N/A     78  74  87 MISG      29.93F                  
MARTIN STATE   MOCLDY    81  75  83 S5        29.94F                  
ANNAPOLIS      MOCLDY    79  72  79 S7        29.92F                  
FORT MEADE*    PTCLDY    72  70  94 CALM      29.95F                  
$$
MDZ012-015-019>023-300800-
MARYLAND EASTERN SHORE
  
CITY           SKY/WX    TMP DP  RH WIND       PRES   REMARKS
OCEAN CITY     PTCLDY    79  73  82 SW9       29.96F                  
SALISBURY      CLEAR     74  72  93 S7        29.97F                  
BAY BRIDGE AP*   N/A     79  72  78 S12       29.93F                  
CAMBRIDGE*     PTCLDY    79  73  83 S5        29.95F                  
EASTON*        PTCLDY    80  77  92 SW6       29.98F                  
$$
MDZ017>025-300800-
SOUTHERN MARYLAND
  
CITY           SKY/WX    TMP DP  RH WIND       PRES   REMARKS
PATUXENT RIVER CLEAR     77  72  84 SW8       29.95F                  
ST INIGOES     CLEAR     78  72  81 S8        29.95F                  
LEONARDTOWN*   CLEAR     77  70  78 CALM      29.97F                  
$$
MDZ003>005-300800-
NORTH CENTRAL MARYLAND
  
CITY           SKY/WX    TMP DP  RH WIND       PRES   REMARKS
FREDERICK*     PTCLDY    73  73 100 CALM      29.95F                  
HAGERSTOWN APT MOCLDY    78  73  84 S3        29.92F                  
WESTMINSTER*   MOCLDY    75  73  94 S5        29.95F                  
$$
MDZ501>502-300800-
WESTERN MARYLAND
  
CITY           SKY/WX    TMP DP  RH WIND       PRES   REMARKS
OAKLAND*       PTCLDY    70 N/A N/A SW6       30.05F HAZE             
CUMBERLAND*    PTCLDY    73  73 100 CALM      29.97F                  
$$
VAZ025>031-300800-
SHENANDOAH VALLEY
  
CITY           SKY/WX    TMP DP  RH WIND       PRES   REMARKS
WINCHESTER*    PTCLDY    77  73  88 S3        29.93F                  
FRONT ROYAL*   FAIR      75  72  88 CALM      29.93F                  
LURAY*         CLOUDY    79  75  89 CALM      29.95F                  
NEW MARKET*    FAIR      75  73  93 CALM      29.93F                  
STAUNTON*      PTCLDY    76  73  88 S3        29.98F                  
WAYNESBORO*    FAIR      72  71  97 S3        29.99F                  
$$
WVZ021-048>050-054>055-300800-
EASTERN WEST VIRGINIA PANHANDLE
  
CITY           SKY/WX    TMP DP  RH WIND       PRES   REMARKS
MARTINSBURG    MOCLDY    74  73  97 SW3       29.92F FOG              
PETERSBURG*    PTCLDY   N/A N/A N/A W3        29.96F HAZE             
$$
VAZ036>039-050-300800-
CENTRAL FOOTHILLS
  
CITY           SKY/WX    TMP DP  RH WIND       PRES   REMARKS
CHARLOTTESVILL CLEAR     76  73  91 S3        29.95F                  
CULPEPER*      CLEAR     73  72  98 CALM      29.94F                  
ORANGE*        CLEAR     73  73 100 CALM      29.96F                  
GORDONSVILLE*  FAIR      73  72  94 SW3       29.94F                  
WARRENTON*     FAIR      74  73  98 CALM      29.93F                  
$$
VAZ055>057-300800-
NORTH AND CENTRAL PIEDMONT
  
CITY           SKY/WX    TMP DP  RH WIND       PRES   REMARKS
FREDERICKSBRG* CLEAR     79  78  99 S7        29.93F                  
STAFFORD*      PTCLDY    74  72  92 CALM      29.98F                  
$$
NCZ024-NYZ072-PAZ021-071-VAZ022-071-300800-
OTHER REGIONAL OBSERVATIONS
  
CITY           SKY/WX    TMP DP  RH WIND       PRES   REMARKS
NEW YORK CITY  CLEAR     80  70  71 SW5       29.95F                  
PHILADELPHIA   MOCLDY    79  72  79 S9        29.94F                  
PITTSBURGH     LGT RAIN  77  71  82 SW7       29.92F                  
ROANOKE        PTCLDY    73  72  96 CALM      30.01F                  
RICHMOND       PTCLDY    76  70  82 S7        29.96F                  
RALEIGH        PTCLDY    76  70  82 S3        29.98F                  
$$
ANZ530>537-300800-
MARINE OBSERVATIONS
  
STATION/POSITION TIME  TEMP    WIND        PRES
                       AIR SEA DIR/SP/G
                 (UTC) (F)     (DEG/KT/KT) (MB)
THOMAS PT LIGHT  NOT AVBL
BALT KEY BRIDGE  0612   79                 1013.6
COVE POINT       0612   79                 1015.1
LEWISETTA        0612   78 84              1014.2
SOLOMONS ISLAND  0612      83                N/A
$$